Wind_Speed
28 9 17 25 21 14 16 15 19 22 22 19 8 6 8 9 19 12 18 21 16 26 32 28 24 21 16 11 8 7 4 9 9 10 9 8 11 12 12 13 12 10 9 9
14 24 22 20 17 18 18 20 23 22 17 8 18 22 8 9 12 18 25 27 15 22 33 29 26 21 17 12 7 5 6 7 5 7 9 11 12 13 11 12 11 7 7 8
26 20 20 20 21 19 19 21 21 18 21 14 5 5 6 8 9 19 27 25 18 33 36 32 27 23 17 11 8 6 7 5 4 9 10 12 9 11 8 10 10 3 5 6
22 20 18 23 21 18 19 18 21 22 17 6 2 5 3 5 9 9 13 18 33 36 33 32 29 25 17 10 9 7 9 2 2 7 12 12 11 13 7 11 11 2 3 5
17 24 25 24 22 24 21 16 17 20 15 5 6 3 5 3 8 8 3 7 26 35 32 33 29 21 14 10 11 10 6 2 2 7 13 14 14 12 3 8 5 4 1 5
21 18 20 28 22 23 22 13 17 18 14 11 7 8 7 5 5 1 6 23 33 32 31 29 23 18 14 13 12 8 6 2 3 3 9 13 11 6 5 4 4 3 2 5
21 24 22 22 22 24 17 14 10 5 5 6 7 5 8 8 7 8 10 24 29 30 32 29 26 21 19 17 12 10 8 1 4 3 7 12 9 9 6 7 5 5 4 6
15 14 29 25 30 18 20 16 10 7 4 5 7 5 8 11 9 20 30 29 31 34 32 30 25 23 21 16 15 8 10 5 6 1 5 9 10 7 7 7 8 7 7 9
18 18 17 27 20 25 14 18 14 6 3 4 5 5 7 6 8 10 19 30 32 33 31 29 26 23 20 17 15 11 11 6 6 2 3 7 6 7 8 9 7 7 9 11
7 5 21 22 20 19 27 7 8 2 8 6 5 4 6 9 9 9 10 20 28 32 30 28 26 23 19 18 15 11 9 9 6 1 4 5 6 7 8 6 9 10 12 12
18 5 7 19 23 24 14 16 7 7 6 6 1 6 8 14 9 14 11 28 31 33 31 29 27 23 19 19 16 14 11 9 8 6 6 2 6 6 8 8 10 9 11 13
30 5 11 16 18 25 18 14 8 8 5 4 6 5 7 9 11 15 18 29 31 31 29 28 28 25 20 19 16 14 12 12 8 7 7 5 3 4 8 9 13 11 8 10
21 19 4 7 11 13 25 19 9 6 5 8 6 6 5 8 10 22 23 29 33 31 29 29 28 26 22 19 17 14 14 13 9 9 7 9 4 5 8 9 11 15 17 16
20 15 24 13 9 10 26 16 16 9 5 7 10 4 6 8 9 10 24 34 36 35 33 32 31 27 24 20 19 16 13 15 11 12 8 10 5 5 9 9 11 16 17 17
5 24 18 25 20 11 22 21 21 17 9 14 9 9 12 12 11 14 35 36 34 35 34 34 32 29 26 23 21 19 13 17 14 14 10 8 8 11 13 10 10 11 14 16
10 13 23 18 20 23 15 28 22 19 14 7 13 13 8 15 22 18 30 33 33 35 38 35 32 29 28 26 23 21 17 20 16 15 13 8 12 13 11 11 9 11 13 12
8 6 12 21 20 13 14 17 23 20 13 14 11 7 4 5 13 15 26 36 36 37 40 37 35 31 30 29 25 23 20 21 18 16 15 9 16 15 14 13 13 13 11 10
12 9 4 12 15 18 9 11 18 18 15 9 8 14 8 7 16 31 30 37 38 41 41 39 37 32 30 28 27 24 24 22 19 18 16 11 17 16 16 16 15 14 12 9
16 8 5 9 16 3 10 15 23 18 12 15 9 12 14 25 16 11 20 30 37 39 38 38 39 35 32 30 29 27 27 23 21 20 20 14 15 19 15 18 17 17 14 9
13 12 5 2 8 19 9 7 10 18 14 10 11 11 10 13 8 5 23 21 36 35 36 36 39 37 35 33 32 30 29 26 24 19 23 18 12 19 17 18 17 17 18 13
5 5 8 4 4 5 11 6 8 9 8 8 22 17 12 7 10 11 18 23 34 35 36 34 39 39 37 35 33 32 31 30 25 20 22 21 17 19 17 20 19 15 17 17
6 4 3 3 3 4 7 4 6 6 8 19 25 31 25 25 20 15 16 11 31 36 35 36 40 40 39 38 35 33 33 30 26 23 24 24 20 19 19 20 21 17 19 19
2 3 3 6 4 1 11 4 14 16 17 18 12 23 32 29 26 18 13 19 32 36 36 39 40 40 41 39 36 33 31 31 28 25 27 26 24 21 20 20 21 21 20 21
6 13 4 8 11 17 18 18 16 10 18 16 22 17 33 33 27 22 17 20 23 37 37 39 41 43 42 41 38 30 30 32 30 27 28 29 27 24 21 18 21 22 23 26
3 9 11 5 9 26 30 38 34 14 10 8 10 27 35 32 31 28 24 23 28 38 33 35 39 42 39 40 38 33 31 33 33 29 29 31 30 27 24 21 21 21 23 27
7 3 3 4 23 8 21 36 33 14 20 19 14 7 15 27 30 30 32 27 32 32 30 31 35 36 37 36 35 34 33 34 36 33 33 31 33 31 27 22 22 19 20 22
Wind_Direction
208 204 216 218 228 231 237 245 248 251 247 252 321 285 216 225 257 240 268 280 255 203 178 182 192 196 205 215 243 263 276 285 312 335 345 343 333 329 333 349 329 311 245 217
226 228 223 226 220 234 226 248 260 272 276 126 229 250 236 223 237 250 255 258 253 170 167 178 186 195 202 213 228 230 264 274 342 348 344 347 334 322 335 342 354 356 173 185
219 223 222 228 220 231 232 230 250 260 276 284 244 233 237 253 264 288 256 247 179 170 170 175 182 191 191 203 213 238 225 275 329 340 343 353 336 340 329 354 355 24 140 169
233 225 221 218 230 226 240 228 240 254 265 256 266 270 289 291 294 298 266 178 165 165 173 178 182 180 189 198 210 197 235 209 289 345 351 358 356 348 327 338 348 74 209 184
210 207 210 226 213 223 239 225 233 242 253 252 290 324 259 259 290 285 150 254 171 168 174 177 176 177 181 189 199 205 233 200 53 336 344 351 347 348 338 339 24 55 195 195
221 227 209 222 231 221 230 229 233 243 246 246 226 212 256 234 232 141 129 133 153 161 170 170 171 172 170 185 198 208 212 218 129 309 340 351 352 29 40 37 32 40 68 143
218 223 225 223 220 232 220 220 236 260 222 203 217 271 239 259 202 166 139 139 150 161 163 164 167 168 171 186 203 191 201 195 126 335 351 11 45 85 63 29 34 41 107 130
208 220 214 213 220 211 225 208 213 214 178 226 245 230 254 222 155 127 133 146 153 155 163 166 169 171 177 190 193 204 193 169 148 243 359 43 89 55 50 46 50 61 96 116
193 225 190 213 215 214 222 211 202 207 205 198 214 250 339 113 127 121 120 137 148 158 164 165 169 174 181 188 196 186 182 167 180 282 54 60 62 57 46 33 47 71 103 119
250 195 230 210 214 234 215 184 191 179 195 246 281 283 224 157 163 140 127 141 151 158 162 166 171 176 183 189 191 182 187 181 190 140 101 48 36 58 53 39 59 90 109 112
225 218 241 211 204 214 218 218 184 149 153 176 220 277 232 176 164 149 147 149 156 163 166 168 172 176 182 189 192 184 189 190 179 169 155 108 72 54 56 64 71 101 112 112
210 198 235 233 207 207 215 207 169 185 213 176 171 255 159 153 146 144 150 155 162 165 167 172 173 175 182 189 194 191 191 189 189 180 151 142 122 91 87 81 76 88 106 115
193 224 294 253 264 209 206 195 175 132 132 189 182 244 234 133 133 148 152 158 164 167 170 174 177 178 185 190 194 191 184 195 187 184 166 156 178 133 118 99 77 83 94 105
194 196 214 222 211 193 197 183 187 161 159 173 217 206 167 149 140 145 155 163 170 173 173 177 179 180 186 191 196 194 181 198 183 190 184 168 191 154 117 114 102 106 93 89
295 203 201 225 247 246 196 188 188 202 173 187 195 169 179 173 174 174 163 167 169 175 176 180 181 181 187 190 195 199 185 193 185 194 191 171 176 143 114 116 113 109 97 93
327 225 202 222 223 241 258 190 188 198 194 183 178 234 176 192 186 171 160 166 173 177 179 182 183 186 188 191 192 199 188 194 186 197 202 187 175 152 140 138 128 124 109 131
286 331 189 215 222 238 239 218 193 202 196 184 196 181 206 189 185 178 167 170 175 179 182 184 184 190 192 193 192 196 193 194 187 194 201 197 172 165 166 156 145 137 136 133
259 312 280 200 205 229 233 205 193 210 198 199 177 181 201 201 190 194 188 175 175 178 184 189 187 191 195 196 195 194 195 197 191 191 201 204 174 182 184 172 162 154 158 155
216 230 276 190 195 168 258 183 191 212 216 195 184 181 199 220 184 191 190 189 181 181 185 194 192 191 193 194 192 190 194 198 196 191 205 203 186 188 187 177 178 174 167 165
194 208 214 331 163 209 203 222 168 193 205 182 168 193 174 163 181 229 192 193 184 184 185 190 192 191 192 194 193 190 193 198 198 193 205 204 195 190 189 188 196 191 188 183
179 228 202 229 159 240 185 217 177 190 220 181 185 185 169 163 184 200 197 192 184 184 184 186 189 193 198 194 193 192 193 199 203 194 200 204 197 197 204 195 203 202 194 182
297 317 182 164 109 195 142 290 216 194 168 171 185 188 181 188 189 194 203 233 186 180 180 185 188 194 198 196 194 195 197 200 200 196 198 205 201 200 202 205 208 211 193 182
2 4 249 27 221 210 69 40 321 254 191 161 160 190 190 186 186 189 193 190 179 178 180 186 189 195 196 198 200 199 202 194 198 196 201 205 203 206 207 208 209 209 199 188
250 355 29 345 359 340 345 7 333 191 159 176 181 200 192 182 181 188 196 193 185 181 178 185 190 193 195 200 203 208 200 196 196 196 203 205 205 205 207 213 217 215 207 200
302 323 329 292 326 344 8 353 343 19 46 117 156 200 194 192 189 195 202 185 170 173 176 183 190 194 197 201 203 206 204 196 195 196 206 209 208 210 213 222 224 226 223 213
160 252 336 285 331 336 307 329 336 337 2 5 20 134 176 194 197 193 199 192 172 172 177 183 188 192 198 201 205 206 207 203 197 197 207 210 208 210 216 220 217 228 231 218
Height
1454 1463 1462 1459 1460 1461 1465 1465 1463 1449 1442 1444 1447 1447 1440 1438 1442 1441 1439 1440 1441 1442 1446 1451 1456 1459 1461 1465 1470 1475 1477 1477 1476 1474 1472 1470 1468 1467 1464 1460 1456 1454 1454 1456
1454 1445 1445 1448 1453 1455 1458 1462 1458 1446 1438 1439 1448 1444 1435 1436 1436 1431 1431 1433 1436 1440 1445 1449 1452 1456 1459 1464 1469 1473 1475 1476 1475 1474 1472 1469 1467 1465 1462 1459 1456 1453 1452 1455
1437 1430 1439 1443 1446 1450 1449 1455 1454 1454 1437 1431 1435 1444 1435 1428 1427 1426 1424 1426 1430 1432 1439 1445 1450 1454 1458 1463 1468 1471 1473 1475 1474 1473 1471 1468 1466 1464 1461 1459 1456 1454 1454 1454
1427 1430 1430 1436 1439 1441 1451 1437 1441 1443 1445 1465 1429 1472 1438 1431 1429 1422 1419 1423 1426 1431 1437 1442 1447 1452 1457 1463 1467 1470 1472 1473 1473 1472 1471 1467 1465 1463 1460 1458 1456 1454 1455 1454
1414 1417 1423 1427 1427 1429 1434 1430 1434 1435 1442 1445 1442 1460 1444 1428 1433 1423 1421 1419 1426 1428 1433 1439 1445 1451 1457 1462 1466 1469 1471 1472 1472 1472 1470 1467 1465 1462 1460 1458 1456 1455 1454 1454
1407 1408 1412 1415 1418 1420 1421 1427 1428 1430 1436 1457 1446 1451 1447 1439 1427 1418 1417 1419 1424 1430 1434 1441 1447 1452 1456 1461 1465 1468 1470 1471 1472 1472 1469 1467 1463 1461 1460 1459 1457 1455 1454 1454
1403 1401 1402 1406 1414 1413 1417 1430 1455 1467 1460 1472 1433 1443 1442 1419 1415 1415 1417 1421 1426 1430 1435 1440 1445 1451 1456 1460 1464 1467 1469 1470 1471 1471 1469 1467 1464 1462 1461 1460 1457 1455 1455 1454
1407 1413 1392 1390 1397 1408 1412 1419 1441 1471 1470 1456 1429 1447 1429 1406 1406 1411 1413 1419 1425 1429 1434 1439 1444 1450 1455 1459 1463 1466 1467 1469 1471 1470 1469 1468 1467 1465 1462 1460 1459 1457 1455 1456
1394 1392 1369 1377 1382 1392 1403 1411 1406 1432 1426 1447 1437 1422 1409 1405 1409 1412 1414 1420 1425 1430 1434 1439 1444 1449 1454 1458 1462 1465 1467 1469 1470 1470 1469 1469 1468 1466 1464 1462 1461 1459 1458 1458
1374 1396 1370 1371 1378 1378 1386 1388 1417 1428 1455 1465 1439 1430 1433 1415 1411 1410 1414 1419 1425 1430 1434 1438 1443 1448 1453 1457 1461 1464 1467 1468 1469 1469 1469 1469 1469 1467 1466 1464 1463 1462 1461 1461
1373 1378 1374 1370 1371 1379 1382 1391 1394 1408 1426 1455 1458 1447 1402 1401 1403 1410 1413 1416 1421 1428 1432 1437 1442 1447 1452 1456 1459 1463 1466 1467 1469 1469 1470 1470 1470 1469 1468 1467 1465 1465 1465 1464
1356 1374 1386 1368 1353 1358 1367 1378 1391 1408 1427 1422 1436 1438 1391 1395 1399 1403 1410 1414 1421 1426 1432 1437 1441 1446 1450 1454 1458 1461 1464 1466 1468 1469 1470 1471 1471 1471 1470 1470 1469 1468 1467 1467
1351 1368 1394 1374 1366 1357 1363 1363 1373 1389 1404 1421 1436 1434 1393 1391 1396 1400 1407 1413 1419 1425 1430 1436 1440 1445 1449 1452 1456 1459 1463 1465 1467 1468 1469 1471 1472 1473 1472 1473 1472 1471 1469 1470
1339 1351 1361 1371 1356 1351 1362 1362 1367 1386 1411 1411 1409 1406 1399 1396 1396 1401 1406 1410 1416 1421 1427 1433 1437 1442 1447 1451 1454 1458 1461 1464 1466 1467 1469 1471 1472 1474 1474 1475 1475 1476 1476 1475
1340 1342 1343 1345 1346 1344 1344 1353 1360 1372 1385 1396 1397 1401 1395 1392 1393 1395 1399 1406 1413 1419 1423 1429 1433 1438 1443 1448 1451 1455 1459 1462 1465 1466 1468 1471 1473 1475 1476 1477 1478 1479 1479 1479
1352 1333 1333 1346 1338 1340 1350 1340 1348 1357 1370 1378 1382 1388 1381 1381 1383 1388 1394 1401 1408 1413 1418 1424 1430 1435 1439 1444 1449 1453 1457 1461 1464 1465 1467 1470 1473 1475 1477 1479 1480 1481 1482 1482
1366 1351 1338 1350 1338 1343 1358 1340 1342 1349 1356 1365 1383 1377 1372 1378 1381 1383 1389 1394 1401 1407 1412 1418 1424 1429 1435 1440 1445 1450 1454 1459 1462 1464 1467 1469 1472 1475 1477 1480 1482 1483 1484 1485
1361 1363 1346 1340 1345 1369 1338 1331 1333 1344 1350 1355 1362 1365 1369 1372 1374 1378 1383 1388 1394 1400 1406 1412 1418 1425 1430 1436 1442 1447 1452 1456 1460 1463 1466 1468 1471 1474 1477 1480 1482 1485 1486 1487
1351 1360 1352 1343 1345 1336 1330 1323 1330 1340 1354 1345 1356 1357 1361 1366 1372 1376 1378 1382 1387 1393 1399 1404 1411 1418 1425 1432 1438 1444 1448 1452 1457 1461 1464 1467 1470 1473 1475 1478 1482 1485 1487 1488
1334 1340 1347 1337 1353 1348 1328 1318 1321 1331 1354 1339 1344 1351 1356 1361 1378 1375 1374 1378 1383 1388 1394 1400 1407 1414 1420 1426 1433 1440 1445 1449 1453 1459 1462 1465 1468 1471 1475 1478 1480 1484 1486 1488
1332 1333 1340 1341 1342 1330 1313 1313 1316 1350 1356 1331 1335 1342 1349 1358 1362 1367 1371 1374 1378 1384 1390 1396 1403 1408 1414 1421 1428 1434 1440 1444 1450 1455 1460 1463 1466 1469 1473 1476 1479 1483 1485 1488
1351 1341 1329 1332 1334 1341 1306 1314 1328 1328 1321 1324 1329 1336 1343 1349 1357 1363 1367 1371 1374 1379 1386 1392 1399 1405 1411 1417 1423 1429 1435 1441 1447 1452 1456 1460 1464 1467 1470 1473 1477 1481 1484 1487
1354 1355 1354 1348 1332 1309 1310 1316 1316 1314 1318 1320 1327 1333 1338 1345 1352 1359 1364 1368 1370 1376 1382 1388 1394 1400 1407 1413 1418 1424 1430 1438 1444 1449 1453 1456 1460 1464 1467 1471 1474 1478 1482 1485
1370 1355 1346 1344 1327 1322 1321 1319 1317 1313 1313 1317 1321 1329 1334 1339 1347 1354 1361 1366 1368 1373 1378 1385 1391 1396 1403 1409 1415 1420 1427 1434 1440 1446 1450 1453 1457 1461 1464 1468 1471 1474 1478 1481
1367 1367 1356 1348 1337 1329 1329 1331 1324 1318 1316 1318 1321 1325 1330 1335 1341 1349 1356 1362 1364 1371 1377 1381 1387 1393 1399 1405 1411 1418 1424 1430 1435 1441 1445 1449 1453 1456 1460 1463 1467 1470 1474 1478
1373 1370 1364 1356 1350 1359 1355 1342 1329 1323 1323 1323 1323 1327 1330 1333 1338 1344 1351 1357 1362 1367 1372 1377 1384 1390 1397 1402 1408 1414 1420 1425 1431 1436 1440 1443 1448 1452 1456 1460 1464 1467 1471 1475